EA4BPO Weather Reports


time (UTC)temp
C
wind
direction
speed
KPH
gust
KPH
rain 1hr
cm
rain 24hr
cm
rain mn
cm
humidity
%
barometer
mb
20260507132004 10 129 9.7 24.1 0.30 0.30 0.30 91 1010.6
20260507131504 10 96 12.9 27.4 0.30 0.30 0.30 90 1010.7
20260507131004 11 87 12.9 27.4 0.30 0.30 0.30 90 1010.3
20260507130504 11 86 11.3 25.7 0.30 0.30 0.30 89 1009.8
20260507130004 11 115 12.9 25.7 0.28 0.28 0.28 87 1009.9
20260507125525 11 161 11.3 24.1 0.25 0.25 0.28 85 1010.4
20260507125004 11 146 11.3 27.4 0.18 0.18 0.18 83 1010.6
20260507124504 12 91 11.3 27.4 0.13 0.13 0.13 83 1010.3
20260507124004 12 88 14.5 29.0 0.08 0.08 0.08 80 1009.9
20260507123504 13 85 12.9 29.0 0.08 0.08 0.08 78 1009.7
20260507123025 14 87 8.0 24.1 0.05 0.05 0.05 80 1009.7
20260507122525 16 122 4.8 17.7 0.03 0.03 0.03 72 1009.5
20260507122004 16 176 3.2 9.7 0.00 0.00 0.00 65 1009.8
20260507121504 16 144 3.2 11.3 0.00 0.00 0.00 63 1009.9
20260507121004 16 100 4.8 11.3 0.00 0.00 0.00 62 1009.5
20260507120525 17 98 4.8 12.9 0.00 0.00 0.00 61 1009.6
20260507120005 17 96 4.8 12.9 0.00 0.00 0.00 61 1009.9
20260507115525 17 89 4.8 11.3 0.00 0.00 0.00 62 1009.8
20260507115004 17 84 3.2 11.3 0.00 0.00 0.00 61 1009.7
20260507114525 17 79 3.2 9.7 0.00 0.00 0.00 60 1009.7
20260507114004 16 79 3.2 6.4 0.00 0.00 0.00 63 1009.8
20260507113504 16 64 3.2 9.7 0.00 0.00 0.00 64 1009.8
20260507113004 16 37 3.2 9.7 0.00 0.00 0.00 65 1009.9
20260507112504 16 30 3.2 6.4 0.00 0.00 0.00 66 1010.1
20260507112004 16 51 3.2 9.7 0.00 0.00 0.00 65 1010.0
20260507111506 16 67 3.2 9.7 0.00 0.00 0.00 65 1010.1
20260507111004 16 115 4.8 12.9 0.00 0.00 0.00 66 1010.3
20260507110504 16 155 4.8 12.9 0.00 0.00 0.00 66 1010.4
20260507110004 16 101 4.8 12.9 0.00 0.00 0.00 66 1010.3
20260507105504 16 87 4.8 12.9 0.00 0.00 0.00 66 1010.4
20260507105004 16 108 3.2 6.4 0.00 0.00 0.00 65 1010.4
20260507104505 16 88 3.2 6.4 0.00 0.00 0.00 66 1010.5
20260507104025 16 14 3.2 6.4 0.00 0.00 0.00 66 1010.5
20260507103504 15 31 4.8 11.3 0.00 0.00 0.00 68 1010.5
20260507103004 15 44 4.8 11.3 0.00 0.00 0.00 68 1010.7
20260507102504 15 66 3.2 11.3 0.00 0.00 0.00 67 1010.6
20260507102006 15 89 3.2 9.7 0.00 0.00 0.00 68 1010.8
20260507101525 15 112 3.2 9.7 0.00 0.00 0.00 68 1011.0
20260507101004 15 114 4.8 11.3 0.00 0.00 0.00 67 1011.1
20260507100504 15 92 4.8 14.5 0.00 0.00 0.00 69 1011.3
20260507100005 15 66 4.8 14.5 0.00 0.00 0.00 68 1011.1
20260507095504 15 75 3.2 9.7 0.00 0.00 0.00 70 1010.8
20260507095004 15 84 3.2 9.7 0.00 0.00 0.00 69 1010.7
20260507094525 14 80 4.8 11.3 0.00 0.00 0.00 70 1011.1
20260507094004 14 85 3.2 11.3 0.00 0.00 0.00 70 1010.8
20260507093504 15 77 4.8 12.9 0.00 0.00 0.00 69 1011.1
20260507093004 13 70 6.4 12.9 0.00 0.00 0.00 72 1011.1
20260507092504 13 65 4.8 12.9 0.00 0.00 0.00 71 1011.1
20260507092004 13 71 3.2 11.3 0.00 0.00 0.00 71 1011.1
20260507091504 14 83 3.2 11.3 0.00 0.00 0.00 69 1011.2
20260507091004 15 89 3.2 12.9 0.00 0.00 0.00 68 1011.1
20260507090504 14 77 3.2 12.9 0.00 0.00 0.00 70 1011.1
20260507090005 13 67 4.8 16.1 0.00 0.00 0.00 72 1011.1
20260507085504 13 61 6.4 16.1 0.00 0.00 0.00 72 1010.7
20260507085004 13 52 6.4 12.9 0.00 0.00 0.00 73 1011.0
20260507084504 13 48 4.8 12.9 0.00 0.00 0.00 72 1011.1
20260507084004 13 46 4.8 14.5 0.00 0.00 0.00 71 1010.8
20260507083504 13 52 6.4 14.5 0.00 0.00 0.00 73 1010.8
20260507083004 13 56 4.8 11.3 0.00 0.00 0.00 72 1011.0
20260507082504 13 62 4.8 11.3 0.00 0.00 0.00 72 1010.8
20260507082004 12 64 4.8 12.9 0.00 0.00 0.00 74 1011.0
20260507081525 12 62 4.8 12.9 0.00 0.00 0.00 75 1011.2
20260507081004 12 57 4.8 11.3 0.00 0.00 0.00 75 1011.1
20260507080525 11 56 4.8 11.3 0.00 0.00 0.00 76 1011.1
20260507080004 11 52 4.8 11.3 0.00 0.00 0.00 77 1011.1
20260507075525 12 45 3.2 11.3 0.00 0.00 0.00 76 1011.4
20260507075025 11 44 3.2 14.5 0.00 0.00 0.00 77 1010.8
20260507074525 11 37 4.8 16.1 0.00 0.00 0.00 77 1010.7
20260507074025 11 35 6.4 16.1 0.00 0.00 0.00 77 1011.0
20260507073504 11 40 6.4 14.5 0.00 0.00 0.00 77 1010.6
20260507073004 11 39 4.8 12.9 0.00 0.00 0.00 76 1010.7
20260507072504 11 32 6.4 12.9 0.00 0.00 0.00 76 1010.7
20260507072004 11 35 6.4 16.1 0.00 0.00 0.00 77 1010.7
20260507071504 11 55 6.4 16.1 0.00 0.00 0.00 77 1010.8
20260507071025 11 62 6.4 12.9 0.00 0.00 0.00 77 1010.7
20260507070504 11 60 6.4 12.9 0.00 0.00 0.00 77 1011.1
20260507070025 11 52 4.8 12.9 0.00 0.00 0.00 77 1011.0
20260507065504 11 48 4.8 12.9 0.00 0.00 0.00 77 1010.7